When you browse on this site, cookies collect data to enhance your experience and personalize the content and advertising you see.
Visit our Privacy Policy to learn more. By continuing to use the site, you agree to this use of cookies and data.
  • In Switzerland
  • List of Countries
  • For 7 days
  • Water Temperature
  • Weather Map
  • Weather Widgets
  • user-avatar
    Login

    Hourly Weather Meribel

    Today, 15 November, Friday

    Time Temperature Precipitation Wind Pressure Humidity
    00:00 -4°C° 1.8 mm 3 mps 615 mmHg 93%
    01:00 -4°C° 1.4 mm 3 mps 614 mmHg 94%
    02:00 -3°C° 1.4 mm 2 mps 614 mmHg 95%
    03:00 -3°C° 1.4 mm 2 mps 614 mmHg 96%
    04:00 -4°C° 0.6 mm 2 mps 615 mmHg 94%
    05:00 -4°C° 0.6 mm 2 mps 615 mmHg 93%
    06:00 -5°C° 0.6 mm 2 mps 616 mmHg 92%
    07:00 -4°C° 0 mm 2 mps 616 mmHg 91%
    08:00 -3°C° 0 mm 2 mps 617 mmHg 90%
    09:00 -2°C° 0 mm 2 mps 618 mmHg 89%
    10:00 -1°C° 0 mm 2 mps 619 mmHg 86%
    11:00 -1°C° 0 mm 2 mps 619 mmHg 84%
    12:00 +2°C° 0 mm 1 mps 619 mmHg 82%
    13:00 +1°C° 0 mm 1 mps 619 mmHg 85%
    14:00 +1°C° 0 mm 1 mps 619 mmHg 88%
    15:00 0°C° 0 mm 1 mps 619 mmHg 92%
    16:00 -1°C° 0 mm 1 mps 619 mmHg 91%
    17:00 -2°C° 0 mm 1 mps 619 mmHg 91%
    18:00 -5°C° 0 mm 2 mps 619 mmHg 91%
    19:00 -5°C° 0.1 mm 2 mps 619 mmHg 91%
    20:00 -5°C° 0.1 mm 2 mps 619 mmHg 90%
    21:00 -3°C° 0.1 mm 1 mps 619 mmHg 90%
    22:00 -3°C° 0.2 mm 1 mps 620 mmHg 90%
    23:00 -5°C° 0.2 mm 2 mps 620 mmHg 90%

    Tomorrow, 16 November, Saturday

    Time Temperature Precipitation Wind Pressure Humidity
    00:00 -6°C° 0.2 mm 2 mps 620 mmHg 90%
    01:00 -6°C° 0.3 mm 2 mps 620 mmHg 91%
    02:00 -3°C° 0.3 mm 1 mps 621 mmHg 92%
    03:00 -3°C° 0.3 mm 1 mps 621 mmHg 92%
    04:00 -6°C° 0.1 mm 2 mps 621 mmHg 92%
    05:00 -6°C° 0.1 mm 2 mps 622 mmHg 91%
    06:00 -7°C° 0.1 mm 2 mps 622 mmHg 90%
    07:00 -5°C° 0 mm 2 mps 623 mmHg 88%
    08:00 -4°C° 0 mm 2 mps 624 mmHg 87%
    09:00 -3°C° 0 mm 2 mps 625 mmHg 85%
    10:00 -2°C° 0 mm 2 mps 625 mmHg 83%
    11:00 -1°C° 0 mm 2 mps 626 mmHg 80%
    12:00 +2°C° 0 mm 1 mps 626 mmHg 78%
    13:00 +1°C° 0 mm 1 mps 626 mmHg 82%
    14:00 0°C° 0 mm 1 mps 625 mmHg 86%
    15:00 0°C° 0 mm 1 mps 625 mmHg 90%
    16:00 -4°C° 0 mm 2 mps 624 mmHg 89%
    17:00 -5°C° 0 mm 2 mps 624 mmHg 89%
    18:00 -6°C° 0 mm 2 mps 624 mmHg 88%
    19:00 -6°C° 0 mm 2 mps 624 mmHg 87%
    20:00 -6°C° 0 mm 2 mps 624 mmHg 86%
    21:00 -5°C° 0 mm 2 mps 623 mmHg 86%
    22:00 -5°C° 0 mm 2 mps 623 mmHg 86%
    23:00 -5°C° 0 mm 2 mps 622 mmHg 86%

    Day after tomorrow, 17 November, Sunday

    Time Temperature Precipitation Wind Pressure Humidity
    00:00 -3°C° 0 mm 1 mps 622 mmHg 86%
    01:00 -2°C° 0.1 mm 1 mps 621 mmHg 87%
    02:00 -2°C° 0.1 mm 1 mps 620 mmHg 88%
    03:00 -2°C° 0.1 mm 1 mps 619 mmHg 89%
    04:00 -2°C° 1 mm 1 mps 619 mmHg 91%
    05:00 -2°C° 1 mm 1 mps 618 mmHg 93%
    06:00 -2°C° 1 mm 1 mps 617 mmHg 95%
    07:00 -1°C° 2 mm 1 mps 617 mmHg 95%
    08:00 0°C° 2 mm 1 mps 617 mmHg 95%
    09:00 0°C° 2 mm 1 mps 617 mmHg 95%
    10:00 0°C° 0.4 mm 1 mps 617 mmHg 96%
    11:00 +1°C° 0.4 mm 1 mps 618 mmHg 96%
    12:00 +1°C° 0.4 mm 1 mps 618 mmHg 96%
    13:00 +1°C° 0.9 mm 1 mps 618 mmHg 97%
    14:00 0°C° 0.9 mm 1 mps 618 mmHg 97%
    15:00 -2°C° 0.9 mm 2 mps 617 mmHg 97%
    16:00 -1°C° 1 mm 1 mps 618 mmHg 97%
    17:00 -1°C° 1 mm 1 mps 618 mmHg 97%
    18:00 -2°C° 1 mm 1 mps 619 mmHg 97%
    19:00 -2°C° 0.6 mm 1 mps 619 mmHg 97%
    20:00 -2°C° 0.6 mm 1 mps 619 mmHg 97%
    21:00 -2°C° 0.6 mm 1 mps 620 mmHg 97%
    22:00 -2°C° 0.8 mm 1 mps 620 mmHg 97%
    23:00 -2°C° 0.8 mm 1 mps 620 mmHg 97%

    18 November, Monday

    Time Temperature Precipitation Wind Pressure Humidity
    00:00 -2°C° 0.8 mm 1 mps 620 mmHg 97%
    01:00 -3°C° 0.4 mm 1 mps 620 mmHg 97%
    02:00 -5°C° 0.4 mm 0 mps 620 mmHg 97%
    03:00 -5°C° 0.4 mm 0 mps 620 mmHg 98%
    04:00 -6°C° 0.1 mm 0 mps 620 mmHg 97%
    05:00 -6°C° 0.1 mm 0 mps 620 mmHg 97%
    06:00 -6°C° 0.1 mm 0 mps 620 mmHg 96%
    07:00 -5°C° 0 mm 0 mps 621 mmHg 94%
    08:00 -4°C° 0 mm 0 mps 622 mmHg 93%
    09:00 -3°C° 0 mm 0 mps 623 mmHg 91%
    10:00 -3°C° 0 mm 0 mps 623 mmHg 92%
    11:00 -1°C° 0 mm 1 mps 623 mmHg 92%
    12:00 -1°C° 0 mm 1 mps 623 mmHg 93%
    13:00 -1°C° 0.1 mm 1 mps 623 mmHg 94%
    14:00 -1°C° 0.1 mm 1 mps 623 mmHg 95%
    15:00 -1°C° 0.1 mm 1 mps 623 mmHg 96%
    16:00 -3°C° 0 mm 1 mps 623 mmHg 96%
    17:00 -4°C° 0 mm 1 mps 623 mmHg 96%
    18:00 -6°C° 0 mm 0 mps 623 mmHg 96%
    19:00 -6°C° 0 mm 0 mps 623 mmHg 94%
    20:00 -6°C° 0 mm 1 mps 624 mmHg 92%
    21:00 -7°C° 0 mm 1 mps 624 mmHg 90%
    22:00 -7°C° 0 mm 1 mps 624 mmHg 89%
    23:00 -7°C° 0 mm 1 mps 624 mmHg 88%

    19 November, Tuesday

    Time Temperature Precipitation Wind Pressure Humidity
    00:00 -8°C° 0 mm 1 mps 624 mmHg 86%
    01:00 -8°C° 0 mm 1 mps 624 mmHg 87%
    02:00 -8°C° 0 mm 1 mps 624 mmHg 87%
    03:00 -8°C° 0 mm 1 mps 624 mmHg 87%
    04:00 -8°C° 0 mm 1 mps 624 mmHg 87%
    05:00 -8°C° 0 mm 1 mps 625 mmHg 88%
    06:00 -8°C° 0 mm 1 mps 625 mmHg 88%
    07:00 -7°C° 0 mm 1 mps 626 mmHg 86%
    08:00 -4°C° 0 mm 1 mps 627 mmHg 84%
    09:00 -3°C° 0 mm 0 mps 628 mmHg 82%
    10:00 -2°C° 0 mm 0 mps 628 mmHg 78%
    11:00 -1°C° 0 mm 0 mps 628 mmHg 74%
    12:00 0°C° 0 mm 0 mps 628 mmHg 70%
    13:00 -1°C° 0 mm 0 mps 628 mmHg 75%
    14:00 -2°C° 0 mm 0 mps 627 mmHg 79%
    15:00 -2°C° 0 mm 0 mps 627 mmHg 83%
    16:00 -3°C° 0 mm 1 mps 627 mmHg 78%
    17:00 -6°C° 0 mm 2 mps 627 mmHg 73%
    18:00 -7°C° 0 mm 2 mps 627 mmHg 68%
    19:00 -7°C° 0 mm 2 mps 627 mmHg 66%
    20:00 -8°C° 0 mm 3 mps 627 mmHg 63%
    21:00 -7°C° 0 mm 3 mps 627 mmHg 60%
    22:00 -8°C° 0 mm 3 mps 627 mmHg 61%
    23:00 -8°C° 0 mm 3 mps 627 mmHg 62%

    20 November, Wednesday

    Time Temperature Precipitation Wind Pressure Humidity
    00:00 -8°C° 0 mm 3 mps 627 mmHg 63%
    01:00 -8°C° 0 mm 3 mps 627 mmHg 65%
    02:00 -8°C° 0 mm 3 mps 627 mmHg 67%
    03:00 -8°C° 0 mm 3 mps 627 mmHg 69%
    04:00 -7°C° 0.1 mm 3 mps 627 mmHg 72%
    05:00 -6°C° 0.1 mm 3 mps 627 mmHg 75%
    06:00 -6°C° 0.1 mm 3 mps 627 mmHg 78%
    07:00 -5°C° 0 mm 3 mps 628 mmHg 79%
    08:00 -3°C° 0 mm 2 mps 628 mmHg 81%
    09:00 -2°C° 0 mm 2 mps 629 mmHg 82%
    10:00 -1°C° 0 mm 2 mps 629 mmHg 85%
    11:00 +2°C° 0 mm 2 mps 629 mmHg 88%
    12:00 +3°C° 0 mm 2 mps 629 mmHg 91%
    13:00 +2°C° 0 mm 2 mps 629 mmHg 91%
    14:00 +2°C° 0 mm 2 mps 629 mmHg 92%
    15:00 +2°C° 0 mm 2 mps 629 mmHg 92%
    16:00 +1°C° 0 mm 2 mps 628 mmHg 91%
    17:00 -1°C° 0 mm 2 mps 628 mmHg 90%
    18:00 -2°C° 0 mm 3 mps 628 mmHg 89%
    19:00 -2°C° 0 mm 3 mps 628 mmHg 89%
    20:00 -2°C° 0 mm 3 mps 628 mmHg 89%
    21:00 -2°C° 0 mm 3 mps 628 mmHg 89%
    22:00 -2°C° 0 mm 3 mps 628 mmHg 89%
    23:00 -2°C° 0 mm 3 mps 628 mmHg 90%
    Show more